Regional Weather Roundup
Issued by NWS Green Bay, WI

Home | Current Version | Previous Version | Graphics & Text | Print | Product List | Glossary Off
Versions: 1 2 3 4 5 6 7 8 9 10 11 12 13 14 15 16 17 18 19 20 21 22 23 24 25 26 27 28 29 30 31 32 33 34 35 36 37 38 39 40 41 42 43 44 45 46 47 48 49 50

000
ASUS43 KGRB 302200
RWRGRB

NORTH-CENTRAL AND NORTHEAST WISCONSIN REGIONAL WEATHER ROUNDUP
NATIONAL WEATHER SERVICE GREEN BAY WI
500 PM CDT SUN AUG 30 2015

WIZ005-009-010>012-018-019-302300-
NORTH CENTRAL WISCONSIN

CITY           SKY/WX    TMP DP  RH WIND       PRES   REMARKS
IRONWOOD       SUNNY     81  64  57 SW9       29.88S
MANITOWISH WTR NOT AVBL
ARBOR VITAE    NOT AVBL
EAGLE RIVER    NOT AVBL
LAND O LAKES   NOT AVBL
RHINELANDER    SUNNY     77  63  61 SW8       29.99F
PHILLIPS       NOT AVBL
ANTIGO         NOT AVBL
TOMAHAWK       NOT AVBL
MERRILL        NOT AVBL
$$

WIZ013-073-302300-
NORTHEAST WISCONSIN

CITY           SKY/WX    TMP DP  RH WIND       PRES   REMARKS
IRON MOUNTAIN  SUNNY     79  60  52 SW10G20   29.94F
MARINETTE      SUNNY     75  63  64 SW10      29.96F
$$

WIZ017-030-035>037-045-302300-
CENTRAL WISCONSIN

CITY           SKY/WX    TMP DP  RH WIND       PRES   REMARKS
MEDFORD        NOT AVBL
WAUSAU         SUNNY     77  64  64 SW8       29.98F
MOSINEE        NOT AVBL
MARSHFIELD     SUNNY     77  63  61 SW9       30.00F
WISC RAPIDS    SUNNY     75  62  64 S9        30.01F
STEVENS POINT  NOT AVBL
WAUPACA        NOT AVBL
SHAWANO        NOT AVBL
CLINTONVILLE   NOT AVBL
WAUTOMA        NOT AVBL
$$

WIZ038-039-048-051-302300-
FOX VALLEY

CITY           SKY/WX    TMP DP  RH WIND       PRES   REMARKS
NWS GREEN BAY  SUNNY     74  65  73 SW6       30.00F
APPLETON       MOSUNNY   73  63  68 SW8       30.00F
OSHKOSH        SUNNY     73  63  70 SW8       30.01F
FOND DU LAC    SUNNY     73  64  73 SW7       30.02F
$$

WIZ022-050-052-302300-
EAST CENTRAL WISCONSIN

CITY           SKY/WX    TMP DP  RH WIND       PRES   REMARKS
EPHRAIM        NOT AVBL
STURGEON BAY   SUNNY     73  63  68 SW9       30.01S
MANITOWOC      NOT AVBL
SHEBOYGAN      SUNNY     71  64  78 S7        30.02S
$$

LMZ563-521-522-541>543-302300-
LAKESHORE

STATION/POSITION TIME  TEMP    WIND        PRES    VSBY  WAVE
                       AIR SEA DIR/SP/G                  HT/PER
                 (UTC) (F)     (DEG/KT/KT) (MB)    (MI)  (FT/S)
SHEBOYGAN LKSHOR 2100   63     170/ 12/ 12 1017.0F
NORTHPORT PIER   2100   68     150/  7/  9 1014.9F
N MID LAKE BUOY  2050   64 65  200/ 16/ 17 1015.1F         2/ 3
S GREEN BAY BUOY 2100   68 64  200/ 10/ 12 1017.0
CHAMBERS ISLAND  2100   71     190/  5/ 14 1015.2S
$$


USA.gov is the U.S. government's official web portal to all federal, state and local government web resources and services.